Location: Newark
(30.1000°N, 109.4667°E)
Time: 21:15:28
(UTC+00:00)

Vanguard 2 Rocket - Pass Details

Date: 24 February 2020
Orbit: 554 x 3326 km, 32.9° (Epoch: 05 April)

Event Time Altitude Azimuth Distance (km) Brightness Sun altitude
Rises 11:58:05 0° 249° (WSW) 7,291 12.8 -18.3°
Reaches altitude 10° 12:03:02 10° 249° (WSW) 6,276 12.2 -19.3°
Maximum altitude 12:23:10 87° 163° (SSE) 2,743 9.1 -23.7°
Enters shadow 12:31:08 35° 76° (ENE) 3,257 9.1 -25.4°
